Cosmos 2058 - Orbit

View from above orbital plane
View from above orbital plane
View from above satellite
View from above satellite

Ground track
Ground track

The orbit data is extracted from the following two-line orbital elements,

1 20465U 90010A   13138.76369311  .00001973  00000-0  18573-3 0  7848
2 20465 082.4941 237.0389 0015767 258.8590 101.0858 14.93296273262528
Epoch (UTC): 18 May 2013 18:19:43
Eccentricity: 0.0015767
inclination: 82.4941°
perigee height: 576 km
apogee height: 598 km
right ascension of ascending node: 237.0389°
argument of perigee: 258.8590°
revolutions per day: 14.93296273
mean anomaly at epoch: 101.0858°
orbit number at epoch: 26252

The dashed part of the orbit path shows where the satellite is in the earth's shadow,  

Developed and maintained by Chris Peat, Heavens-Above GmbH. Please read the updated FAQ before sending e-mail. Imprint. DLR